Regional Weather Roundup
Issued by NWS New Orleans/Baton Rouge, LA

Home | Current Version | Previous Version | Text Only | Print | Product List | Glossary On
Versions: 1 2 3 4 5 6 7 8 9 10 11 12 13 14 15 16 17 18 19 20 21 22 23 24 25 26 27 28 29 30 31 32 33 34 35 36 37 38 39 40 41 42 43 44 45 46 47 48 49 50
000
ASUS44 KLIX 310914
RWRLIX
NEW ORLEANS REGIONAL WEATHER ROUNDUP
NATIONAL WEATHER SERVICE NEW ORLEANS LA
400 AM CDT MON AUG 31 2015

NOTE: "FAIR" INDICATES FEW OR NO CLOUDS BELOW 12,000 FEET WITH NO
      SIGNIFICANT WEATHER AND/OR OBSTRUCTIONS TO VISIBILITY.
      SKY/WX - SKY CONDITION AND SIGNIFICANT WEATHER.
      TMP - AIR TEMPERATURE.     DP    - DEWPOINT TEMPERATURE.
      RH  - RELATIVE HUMIDITY.   PRES  - PRESSURE.
      HI  - HEAT INDEX.          WCI   - WIND CHILL INDEX.

*  THESE STATIONS ARE NOT NWS OR FAA STATIONS AND ARE NOT UNDER
   NWS QUALITY CONTROL.

LAZ038-040-048-061>063-065>067-069-311000-
SOUTHEAST LOUISIANA

CITY           SKY/WX    TMP DP  RH WIND       PRES   REMARKS
N.O. AUDUBON   NOT AVBL
N.O. INTL ARPT PTCLDY    76  69  79 CALM      30.00S
N.O. LAKEFRONT CLEAR     79  72  79 W6        30.00F
N.O. DOWNTOWN*   N/A     81  72  74 CALM      30.01S
RESERVE*         N/A     73  71  92 CALM      30.00F FOG
SLIDELL        PTCLDY    70  69  97 CALM      30.00S
BATON ROUGE    PTCLDY    72  70  93 W3        30.00S
BOOTHVILLE     CLEAR     79  74  84 CALM      30.00S
BELLE CHASSE   CLEAR     70  68  93 CALM      30.00S FOG
BOGALUSA*      NOT AVBL
GALLIANO*      SUNNY     69  68  96 CALM      29.99F
NEW ROADS*       N/A     72  70  94 CALM      30.00F
GONZALES*        N/A     71  71 100 CALM      29.99S
HAMMOND*       CLEAR     70  66  88 CALM      30.02S
HOUMA*         CLEAR     71  71  99 CALM      30.00S FOG
PORT FOURCHON* SUNNY     81  73  78 CALM      30.00S

$$

MSZ070-080>082-311000-
SOUTHERN MISSISSIPPI

CITY           SKY/WX    TMP DP  RH WIND       PRES   REMARKS
MCCOMB         CLEAR     68  65  90 CALM      30.02S
GULFPORT       PTCLDY    73  69  87 N3        30.00S
BILOXI         CLEAR     73  70  90 N1        30.00S
PASCAGOULA     CLEAR     68  67  96 CALM      30.00F

$$

COASTAL OBSERVATIONS
LAKE AND NEARSHORE STATIONS

STATION/POSITION TIME  TEMP    WIND        PRES    WAVE
                       AIR SEA DIR/SP/G            HT/PER
                 (UTC) (F)     (DEG/KT/KT) (MB)    (FT/S)

OFFSHORE STATIONS

STATION/POSITION TIME  TEMP    WIND        PRES    WAVE
                       AIR SEA DIR/SP/G            HT/PER
                 (UTC) (F)     (DEG/KT/KT) (MB)    (FT/S)
64 S DAUPHIN ISL 0850   81 85  250/  4/  6 1015.8    1/ 6

$$




USA.gov is the U.S. government's official web portal to all federal, state and local government web resources and services.